Tracking 19831 objects as of 23-Aug-2019
HD Live streaming from Space Station
objects crossing your sky now

COSMOS 2251 DEB

Track COSMOS 2251 DEB now!
10-day predictions


NORAD ID: 33930
Int'l Code: 1993-036EK
Perigee: 726.7 km
Apogee: 764.1 km
Inclination: 74.0 °
Period: 99.6 minutes
Semi major axis: 7116 km
RCS: 0.0731 m2 (small)
Launch date: June 16, 1993
Source: Commonwealth of Independent States (former USSR) (CIS)
Launch site: PLESETSK MISSILE AND SPACE COMPLEX (PKMTR)

Note: This is SATELLITE DEBRIS
aabbcc
Your satellite tracking list
Your tracking list is empty




NASA's NSSDC Master Catalog

Two Line Element Set (TLE):
1 33930U 93036EK  19234.85267979 +.00000480 +00000-0 +14137-3 0  9992
2 33930 074.0303 145.3487 0026270 005.8791 106.3228 14.46139597552144
Source of the keplerian elements: AFSPC